TimeMDT,TemperatureF,Dew PointF,Humidity,Sea Level PressureIn,VisibilityMPH,Wind Direction,Wind SpeedMPH,Gust SpeedMPH,PrecipitationIn,Events,Conditions,WindDirDegrees,DateUTC
12:03 AM,66.2,53.6,64,30.32,10.0,SSE,25.3,29.9,N/A,,Mostly Cloudy,150,2013-07-25 06:03:00
12:53 AM,63.0,55.0,75,30.03,10.0,SSE,18.4,26.5,N/A,,Clear,160,2013-07-25 06:53:00
1:53 AM,62.1,52.0,70,30.05,10.0,WSW,8.1,-,N/A,,Clear,240,2013-07-25 07:53:00
2:53 AM,61.0,54.0,78,30.04,10.0,WSW,10.4,-,N/A,,Clear,250,2013-07-25 08:53:00
3:53 AM,57.9,53.1,84,30.02,10.0,SSW,4.6,-,N/A,,Scattered Clouds,210,2013-07-25 09:53:00
4:53 AM,57.9,53.1,84,30.00,10.0,Calm,Calm,-,N/A,,Clear,0,2013-07-25 10:53:00
5:53 AM,55.9,52.0,87,30.00,10.0,South,3.5,-,N/A,,Clear,190,2013-07-25 11:53:00
6:53 AM,59.0,54.0,83,29.99,10.0,Calm,Calm,-,N/A,,Clear,0,2013-07-25 12:53:00
7:53 AM,61.0,54.0,78,30.00,10.0,SSW,3.5,-,N/A,,Mostly Cloudy,200,2013-07-25 13:53:00
8:53 AM,64.9,55.9,73,30.01,10.0,South,4.6,-,N/A,,Scattered Clouds,180,2013-07-25 14:53:00
9:53 AM,71.1,55.0,57,29.97,10.0,SSW,5.8,-,N/A,,Clear,200,2013-07-25 15:53:00
10:53 AM,75.0,52.0,44,29.96,10.0,SSW,4.6,-,N/A,,Clear,200,2013-07-25 16:53:00
11:53 AM,77.0,53.1,43,29.95,10.0,SW,3.5,-,N/A,,Clear,220,2013-07-25 17:53:00
12:53 PM,82.0,51.1,34,29.92,10.0,South,4.6,-,N/A,,Clear,180,2013-07-25 18:53:00
1:53 PM,82.0,46.9,29,29.91,10.0,Calm,Calm,-,N/A,,Partly Cloudy,0,2013-07-25 19:53:00
2:53 PM,78.1,54.0,43,29.96,10.0,North,11.5,25.3,0.00,,Overcast,360,2013-07-25 20:53:00
3:17 PM,75.2,53.6,47,30.21,10.0,NNE,25.3,41.4,N/A,,Scattered Clouds,30,2013-07-25 21:17:00
3:53 PM,77.0,55.0,47,29.95,10.0,NNE,17.3,-,N/A,,Scattered Clouds,20,2013-07-25 21:53:00
4:53 PM,71.1,54.0,55,29.99,10.0,NNE,19.6,33.4,N/A,,Clear,20,2013-07-25 22:53:00
5:53 PM,77.0,53.1,43,29.98,10.0,NNE,13.8,-,N/A,,Clear,20,2013-07-25 23:53:00
6:53 PM,73.9,53.1,48,30.01,10.0,NNE,9.2,-,N/A,,Overcast,20,2013-07-26 00:53:00
7:53 PM,73.0,50.0,44,30.04,10.0,North,11.5,-,N/A,,Overcast,350,2013-07-26 01:53:00
8:53 PM,68.0,55.9,65,30.07,10.0,North,8.1,-,0.00,,Overcast,360,2013-07-26 02:53:00
9:53 PM,68.0,51.1,55,30.08,10.0,NNW,11.5,-,N/A,,Mostly Cloudy,340,2013-07-26 03:53:00
10:53 PM,64.9,55.9,73,30.09,10.0,NNE,5.8,-,0.02,Rain,Light Rain,30,2013-07-26 04:53:00
11:53 PM,64.0,53.1,67,30.08,10.0,NNE,6.9,-,0.00,,Clear,20,2013-07-26 05:53:00